Hourly Weather Roundup
Issued by NWS Central Illinois

Home | Current Version | Previous Version | Text Only | Print | Product List | Glossary On
Versions: 1 2 3 4 5 6 7 8 9 10 11 12 13 14 15 16 17 18 19 20 21 22 23 24 25 26 27 28 29 30 31 32 33 34 35 36 37 38 39 40 41 42 43 44 45 46 47 48 49 50
000
NZUS43 KILX 211710
HWRILX

AREA WEATHER ROUNDUP
NATIONAL WEATHER SERVICE, LINCOLN IL
1200 PM CDT SUN SEP 21 2014


CITY           SKY/WX    TMP DP  RH WIND       PRES   REMARKS
BLOOMINGTON    PTSUNNY   70  53  54 NW18G28   29.98R
CHAMPAIGN      SUNNY     71  52  50 W17G33    29.96R
DECATUR        SUNNY     71  50  47 NW15G25   29.98S
FLORA          SUNNY     76  49  39 NW9G21    30.00S
GALESBURG      MOSUNNY   66  51  59 NW17G25   30.02R
JACKSONVILLE   SUNNY     73  52  47 NW16G26   30.04S
LACON          CLOUDY    63  49  60 NW17G25   29.99R
LAWRENCEVILLE  SUNNY     75  52  44 W17       29.97S
LITCHFIELD     SUNNY     72  51  47 W14G24    30.03R
$$


CITY           SKY/WX    TMP DP  RH WIND       PRES   REMARKS
LINCOLN        SUNNY     72  48  43 NW8G21    29.96S
MACOMB         SUNNY     69  47  46 NW23G32   30.05R
MATTOON        SUNNY     71  50  47 NW21G29   29.96F
MT CARMEL AP   SUNNY     77  46  33 NW21      29.97F
OLNEY-NOBLE AP SUNNY     73  48  40 NW13G23   29.99F
PARIS          MOSUNNY   73  52  49 W22G29    29.95F
PEORIA         PTSUNNY   69  49  48 NW13G23   29.99R
PONTIAC        CLOUDY    64  52  63 NW17G26   29.97R
RANTOUL        MOSUNNY   73  47  39 W17G25    29.95R
ROBINSON       SUNNY     76  53  43 W15G22    29.97S
SPRINGFIELD    SUNNY     73  51  46 NW15G26   30.01S
TAYLORVILLE    SUNNY     72  50  46 NW16G23   30.01S
$$

...REGIONAL REPORTS...


CITY           SKY/WX    TMP DP  RH WIND       PRES   REMARKS
CHICAGO O`HARE LGT RAIN  61  50  67 NW15G26   29.91R
KANKAKEE       CLOUDY    62  50  65 NW10G18   29.94R
MOLINE         PTSUNNY   64  50  60 NW16G24   30.02R
MOUNT VERNON   SUNNY     73  52  46 NW3       30.03S
PITTSFIELD     MOSUNNY   73  50  44 NW15G22   30.06S
QUINCY         SUNNY     70  49  47 NW16      30.06S
ROCKFORD       CLOUDY    62  50  64 N17G26    29.98R
$$


CITY           SKY/WX    TMP DP  RH WIND       PRES   REMARKS
BURLINGTON     SUNNY     68  47  46 N14G31    30.04R
CEDAR RAPIDS   CLOUDY    58  50  75 NW21G26   30.07R
DES MOINES     MOSUNNY   68  47  46 N20G26    30.14R
KIRKSVILLE     MOSUNNY   69  51  52 N17G24    30.13R
OTTUMWA        SUNNY     67  48  50 NW23G32   30.10R
ST LOUIS       SUNNY     77  50  38 W16       30.05F
$$


CITY           SKY/WX    TMP DP  RH WIND       PRES   REMARKS
TERRE HAUTE    MOSUNNY   74  50  42 W13       29.94F
EVANSVILLE     SUNNY     75  51  43 NW10      29.98S
INDIANAPOLIS   MOSUNNY   72  49  44 W23G31    29.89F
LAFAYETTE      MOSUNNY   68  50  52 NW18G30   29.90R
MADISON        PTSUNNY   61  51  70 N15       29.95R
MILWAUKEE      PTSUNNY   62  54  74 NW14G22   29.89R
$$





USA.gov is the U.S. government's official web portal to all federal, state and local government web resources and services.